Flag for U.S.A. Weather past 2 weeks in Huntsville, Alabama, U.S.A.

Now
68 °F

Clear.


Feels Like: 68 °F
Forecast: 62 / 85 °F
Wind: 3 mph from East

Location: Huntsville International / Jones Field

Current Time: Sep 21, 2014 at 1:32:59 AM

Latest Report: Sep 21, 2014 at 12:53 AM


Visibility: 10 mi

Pressure: 30.01 "Hg

Humidity: 87%

Dew point: 64 °F

Location of HuntsvilleLocation

Historic Weather in Huntsville — Graph

°F

Huntsville temperature yesterday

Maximum temperature yesterday: 87 °F (at 2:53 PM)
Minimum temperature yesterday: 68 °F (at 11:53 PM)
Average temperature yesterday: 76 °F

Past Weeks' High & Low Weather Summary

 TemperatureHumidityPressure
High93 °F (Sep 11, 2:02 PM)93% (Sep 6, 6:53 AM)30.21 "Hg (Sep 6, 6:53 AM)
Low60 °F (Sep 14, 4:53 AM)32% (Sep 17, 2:53 PM)29.89 "Hg (Sep 10, 6:53 PM)
Average77 °F71%30.03 "Hg
* Reported Sep 5 11:53 PM — Sep 20 11:53 PM, Huntsville, Weather by CustomWeather, © 2014

Note: Actual official high and low records may vary slightly from our data, if they occured in-between our weather recording intervals... More about our weather records

Advertising

Huntsville weather history for previous 24 hours

 ConditionsComfort  
Time TempWeatherWind HumidityBarometerVisibility
11:53 PM
Sep 20
68 °FClear.No wind87%30.03 "Hg10 mi
10:53 PM71 °FClear.No wind76%30.03 "Hg10 mi
9:53 PM69 °FClear.No wind81%30.03 "Hg10 mi
8:53 PM74 °FClear.No wind69%30.01 "Hg10 mi
7:53 PM76 °FClear.6 mph64%29.98 "Hg10 mi
6:53 PM78 °FScattered clouds.6 mph58%29.99 "Hg10 mi
5:53 PM84 °FPassing clouds.6 mph45%29.99 "Hg10 mi
4:53 PM86 °FPassing clouds.8 mph43%29.99 "Hg10 mi
3:53 PM87 °FPassing clouds.6 mph42%30.01 "Hg10 mi
2:53 PM87 °FPassing clouds.5 mph43%30.02 "Hg10 mi
1:53 PM86 °FPassing clouds.8 mph45%30.04 "Hg10 mi
12:53 PM84 °FSunny.6 mph49%30.07 "Hg10 mi
7:53 AM72 °FSunny.9 mph76%30.12 "Hg10 mi
6:53 AM69 °FClear.9 mph81%30.11 "Hg10 mi
5:53 AM70 °FClear.9 mph79%30.08 "Hg10 mi
4:53 AM70 °FClear.7 mph81%30.07 "Hg10 mi
3:53 AM70 °FClear.9 mph81%30.06 "Hg10 mi
2:53 AM71 °FClear.8 mph78%30.06 "Hg10 mi
1:53 AM72 °FPassing clouds.9 mph76%30.06 "Hg10 mi
Weather by CustomWeather, © 2014

See weather overviewHow to use our weather pages